Time,TemperatureF,DewpointF,PressureIn,WindDirection,WindDirectionDegrees,WindSpeedMPH,WindSpeedGustMPH,Humidity,HourlyPrecipIn,Conditions,Clouds,dailyrainin,SoftwareType,DateUTC
2013-03-26 00:00:00,31.7,30.2,29.87,WNW,302,5.0,9.0,94,0.00,,,0.32,Wunderground v.1.15,2013-03-26 04:00:00,
2013-03-26 00:01:00,31.6,30.1,29.87,NW,322,5.0,9.0,94,0.00,,,0.32,Wunderground v.1.15,2013-03-26 04:01:00,
2013-03-26 00:04:00,31.6,30.1,29.87,NW,314,6.0,9.0,94,0.00,,,0.00,Wunderground v.1.15,2013-03-26 04:04:00,
2013-03-26 00:09:00,31.6,30.1,29.87,NW,317,5.0,9.0,94,0.00,,,0.00,Wunderground v.1.15,2013-03-26 04:09:00,
2013-03-26 00:15:00,31.6,30.1,29.87,NNW,333,5.0,6.0,94,0.00,,,0.00,Wunderground v.1.15,2013-03-26 04:15:00,
2013-03-26 00:20:00,31.6,30.1,29.87,NNW,329,5.0,5.0,94,0.00,,,0.00,Wunderground v.1.15,2013-03-26 04:20:00,
2013-03-26 00:22:00,31.6,30.1,29.87,NW,317,6.0,12.0,94,0.00,,,0.00,Wunderground v.1.15,2013-03-26 04:22:00,
2013-03-26 00:27:00,31.6,30.1,29.88,NW,306,5.0,12.0,94,0.00,,,0.00,Wunderground v.1.15,2013-03-26 04:27:00,
2013-03-26 00:32:00,31.6,30.1,29.88,NW,318,4.0,7.0,94,0.00,,,0.00,Wunderground v.1.15,2013-03-26 04:32:00,
2013-03-26 00:38:00,31.5,30.0,29.88,NW,316,4.0,9.0,94,0.00,,,0.00,Wunderground v.1.15,2013-03-26 04:38:00,
2013-03-26 00:43:00,31.5,30.0,29.88,NW,309,5.0,7.0,94,0.00,,,0.00,Wunderground v.1.15,2013-03-26 04:43:00,
2013-03-26 00:48:00,31.5,30.0,29.88,NNW,336,5.0,10.0,94,0.00,,,0.00,Wunderground v.1.15,2013-03-26 04:48:00,
2013-03-26 00:54:00,31.4,29.9,29.88,NNW,340,3.0,5.0,94,0.00,,,0.00,Wunderground v.1.15,2013-03-26 04:54:00,
2013-03-26 00:59:00,31.4,29.9,29.88,NW,307,3.0,6.0,94,0.00,,,0.00,Wunderground v.1.15,2013-03-26 04:59:00,
2013-03-26 01:05:00,31.4,29.9,29.89,NW,324,5.0,10.0,94,0.00,,,0.00,Wunderground v.1.15,2013-03-26 05:05:00,
2013-03-26 01:10:00,31.4,29.9,29.88,North,355,4.0,4.0,94,0.00,,,0.00,Wunderground v.1.15,2013-03-26 05:10:00,
2013-03-26 01:17:00,31.5,30.0,29.89,NW,320,4.0,6.0,94,0.00,,,0.00,Wunderground v.1.15,2013-03-26 05:17:00,
2013-03-26 01:22:00,31.5,30.0,29.89,NW,326,5.0,7.0,94,0.00,,,0.00,Wunderground v.1.15,2013-03-26 05:22:00,
2013-03-26 01:27:00,31.5,30.0,29.89,NW,324,5.0,8.0,94,0.00,,,0.00,Wunderground v.1.15,2013-03-26 05:27:00,
2013-03-26 01:33:00,31.5,29.7,29.89,NNW,330,4.0,7.0,93,0.00,,,0.00,Wunderground v.1.15,2013-03-26 05:33:00,
2013-03-26 01:38:00,31.6,29.8,29.89,NNW,333,4.0,7.0,93,0.00,,,0.00,Wunderground v.1.15,2013-03-26 05:38:00,
2013-03-26 01:44:00,31.6,29.8,29.90,NW,317,3.0,4.0,93,0.00,,,0.00,Wunderground v.1.15,2013-03-26 05:44:00,
2013-03-26 01:49:00,31.6,29.8,29.90,NW,319,3.0,4.0,93,0.00,,,0.00,Wunderground v.1.15,2013-03-26 05:49:00,
2013-03-26 01:55:00,31.7,29.9,29.90,NW,321,3.0,5.0,93,0.00,,,0.00,Wunderground v.1.15,2013-03-26 05:55:00,
2013-03-26 02:00:00,31.7,29.9,29.90,NW,319,3.0,6.0,93,0.00,,,0.00,Wunderground v.1.15,2013-03-26 06:00:00,
2013-03-26 02:06:00,31.7,29.9,29.90,NW,323,3.0,6.0,93,0.00,,,0.00,Wunderground v.1.15,2013-03-26 06:06:00,
2013-03-26 02:12:00,31.7,29.9,29.90,NW,309,3.0,3.0,93,0.00,,,0.00,Wunderground v.1.15,2013-03-26 06:12:00,
2013-03-26 02:17:00,31.6,29.8,29.90,NW,304,2.0,4.0,93,0.00,,,0.00,Wunderground v.1.15,2013-03-26 06:17:00,
2013-03-26 02:22:00,31.6,29.8,29.90,NW,319,2.0,2.0,93,0.00,,,0.00,Wunderground v.1.15,2013-03-26 06:22:00,
2013-03-26 02:28:00,31.6,29.8,29.90,NW,322,2.0,4.0,93,0.00,,,0.00,Wunderground v.1.15,2013-03-26 06:28:00,
2013-03-26 02:33:00,31.7,29.9,29.90,NW,306,2.0,5.0,93,0.00,,,0.00,Wunderground v.1.15,2013-03-26 06:33:00,
2013-03-26 02:38:00,31.7,29.9,29.91,West,264,2.0,5.0,93,0.00,,,0.00,Wunderground v.1.15,2013-03-26 06:38:00,
2013-03-26 02:43:00,31.7,29.9,29.91,NW,324,2.0,3.0,93,0.00,,,0.00,Wunderground v.1.15,2013-03-26 06:43:00,
2013-03-26 02:49:00,31.7,29.9,29.91,NW,307,2.0,6.0,93,0.00,,,0.00,Wunderground v.1.15,2013-03-26 06:49:00,
2013-03-26 02:54:00,31.8,30.0,29.90,NW,313,2.0,5.0,93,0.00,,,0.00,Wunderground v.1.15,2013-03-26 06:54:00,
2013-03-26 03:00:00,31.8,30.0,29.90,NW,317,3.0,4.0,93,0.00,,,0.00,Wunderground v.1.15,2013-03-26 07:00:00,
2013-03-26 03:05:00,31.8,30.0,29.90,WNW,296,3.0,9.0,93,0.00,,,0.00,Wunderground v.1.15,2013-03-26 07:05:00,
2013-03-26 03:11:00,31.8,30.0,29.90,WNW,301,4.0,6.0,93,0.00,,,0.00,Wunderground v.1.15,2013-03-26 07:11:00,
2013-03-26 03:17:00,31.8,30.0,29.91,NW,324,6.0,7.0,93,0.00,,,0.00,Wunderground v.1.15,2013-03-26 07:17:00,
2013-03-26 03:23:00,31.8,30.0,29.91,NW,325,4.0,5.0,93,0.00,,,0.00,Wunderground v.1.15,2013-03-26 07:23:00,
2013-03-26 03:28:00,31.8,30.0,29.91,NNW,333,3.0,9.0,93,0.00,,,0.00,Wunderground v.1.15,2013-03-26 07:28:00,
2013-03-26 03:34:00,31.8,30.0,29.91,NW,315,4.0,4.0,93,0.00,,,0.00,Wunderground v.1.15,2013-03-26 07:34:00,
2013-03-26 03:39:00,31.8,30.0,29.91,WNW,298,4.0,7.0,93,0.00,,,0.00,Wunderground v.1.15,2013-03-26 07:39:00,
2013-03-26 03:45:00,31.8,30.0,29.91,NW,319,4.0,4.0,93,0.00,,,0.00,Wunderground v.1.15,2013-03-26 07:45:00,
2013-03-26 03:50:00,31.8,30.0,29.91,NW,304,3.0,3.0,93,0.00,,,0.00,Wunderground v.1.15,2013-03-26 07:50:00,
2013-03-26 03:55:00,31.8,30.0,29.91,NW,311,3.0,11.0,93,0.00,,,0.00,Wunderground v.1.15,2013-03-26 07:55:00,
2013-03-26 04:01:00,31.8,30.0,29.91,NW,321,3.0,7.0,93,0.00,,,0.00,Wunderground v.1.15,2013-03-26 08:01:00,
2013-03-26 04:06:00,31.8,30.0,29.91,WNW,298,2.0,7.0,93,0.00,,,0.00,Wunderground v.1.15,2013-03-26 08:06:00,
2013-03-26 04:12:00,31.8,30.0,29.92,NNW,336,3.0,4.0,93,0.00,,,0.00,Wunderground v.1.15,2013-03-26 08:12:00,
2013-03-26 04:17:00,31.8,30.0,29.92,NW,309,3.0,4.0,93,0.00,,,0.00,Wunderground v.1.15,2013-03-26 08:17:00,
2013-03-26 04:23:00,31.8,30.0,29.92,NW,317,3.0,9.0,93,0.00,,,0.00,Wunderground v.1.15,2013-03-26 08:23:00,
2013-03-26 04:29:00,31.8,30.0,29.92,NW,305,3.0,9.0,93,0.00,,,0.00,Wunderground v.1.15,2013-03-26 08:29:00,
2013-03-26 04:34:00,31.8,30.0,29.92,NW,311,4.0,9.0,93,0.00,,,0.00,Wunderground v.1.15,2013-03-26 08:34:00,
2013-03-26 04:40:00,31.8,30.0,29.92,WNW,298,5.0,5.0,93,0.00,,,0.00,Wunderground v.1.15,2013-03-26 08:40:00,
2013-03-26 04:45:00,31.8,30.0,29.92,NW,304,5.0,6.0,93,0.00,,,0.00,Wunderground v.1.15,2013-03-26 08:45:00,
2013-03-26 04:50:00,31.8,30.0,29.92,NW,324,3.0,6.0,93,0.00,,,0.00,Wunderground v.1.15,2013-03-26 08:50:00,
2013-03-26 04:55:00,31.7,29.9,29.92,NW,311,4.0,9.0,93,0.00,,,0.00,Wunderground v.1.15,2013-03-26 08:55:00,
2013-03-26 05:02:00,31.7,29.9,29.92,NNW,328,4.0,7.0,93,0.00,,,0.00,Wunderground v.1.15,2013-03-26 09:02:00,
2013-03-26 05:07:00,31.7,29.6,29.93,NW,324,5.0,9.0,92,0.00,,,0.00,Wunderground v.1.15,2013-03-26 09:07:00,
2013-03-26 05:13:00,31.7,29.6,29.93,NW,319,5.0,5.0,92,0.00,,,0.00,Wunderground v.1.15,2013-03-26 09:13:00,
2013-03-26 05:18:00,31.7,29.6,29.93,NNW,335,4.0,7.0,92,0.00,,,0.00,Wunderground v.1.15,2013-03-26 09:18:00,
2013-03-26 05:24:00,31.7,29.6,29.94,NW,319,4.0,5.0,92,0.00,,,0.00,Wunderground v.1.15,2013-03-26 09:24:00,
2013-03-26 05:29:00,31.6,29.5,29.93,NW,309,5.0,6.0,92,0.00,,,0.00,Wunderground v.1.15,2013-03-26 09:29:00,
2013-03-26 05:35:00,31.6,29.5,29.94,NW,315,5.0,10.0,92,0.00,,,0.00,Wunderground v.1.15,2013-03-26 09:35:00,
2013-03-26 05:40:00,31.6,29.5,29.94,NW,321,4.0,4.0,92,0.00,,,0.00,Wunderground v.1.15,2013-03-26 09:40:00,
2013-03-26 05:45:00,31.6,29.5,29.94,WNW,298,3.0,10.0,92,0.00,,,0.00,Wunderground v.1.15,2013-03-26 09:45:00,
2013-03-26 05:51:00,31.5,29.4,29.94,NW,306,4.0,8.0,92,0.00,,,0.00,Wunderground v.1.15,2013-03-26 09:51:00,
2013-03-26 05:56:00,31.5,29.4,29.94,NW,307,5.0,8.0,92,0.00,,,0.00,Wunderground v.1.15,2013-03-26 09:56:00,
2013-03-26 06:01:00,31.5,29.4,29.94,NW,319,5.0,5.0,92,0.00,,,0.00,Wunderground v.1.15,2013-03-26 10:01:00,
2013-03-26 06:07:00,31.5,29.4,29.94,NW,319,3.0,5.0,92,0.00,,,0.00,Wunderground v.1.15,2013-03-26 10:07:00,
2013-03-26 06:13:00,31.4,29.3,29.95,NW,314,4.0,9.0,92,0.00,,,0.00,Wunderground v.1.15,2013-03-26 10:13:00,
2013-03-26 06:18:00,31.4,29.3,29.95,WNW,286,3.0,9.0,92,0.00,,,0.00,Wunderground v.1.15,2013-03-26 10:18:00,
2013-03-26 06:24:00,31.4,29.3,29.95,NNW,328,3.0,6.0,92,0.00,,,0.00,Wunderground v.1.15,2013-03-26 10:24:00,
2013-03-26 06:29:00,31.3,29.2,29.95,WNW,300,4.0,6.0,92,0.00,,,0.00,Wunderground v.1.15,2013-03-26 10:29:00,
2013-03-26 06:35:00,31.3,29.2,29.96,WNW,298,3.0,9.0,92,0.00,,,0.00,Wunderground v.1.15,2013-03-26 10:35:00,
2013-03-26 06:40:00,31.2,29.1,29.96,NW,316,4.0,4.0,92,0.00,,,0.00,Wunderground v.1.15,2013-03-26 10:40:00,
2013-03-26 06:47:00,31.2,29.1,29.96,NW,315,3.0,6.0,92,0.00,,,0.00,Wunderground v.1.15,2013-03-26 10:47:00,
2013-03-26 06:53:00,31.1,29.0,29.96,NNW,329,3.0,7.0,92,0.00,,,0.00,Wunderground v.1.15,2013-03-26 10:53:00,
2013-03-26 06:59:00,31.1,29.0,29.97,NW,319,4.0,7.0,92,0.00,,,0.00,Wunderground v.1.15,2013-03-26 10:59:00,
2013-03-26 07:04:00,31.1,29.0,29.97,WNW,293,4.0,6.0,92,0.00,,,0.00,Wunderground v.1.15,2013-03-26 11:04:00,
2013-03-26 07:10:00,31.0,28.9,29.97,NW,314,4.0,4.0,92,0.00,,,0.00,Wunderground v.1.15,2013-03-26 11:10:00,
2013-03-26 07:16:00,31.0,28.9,29.97,NW,316,4.0,6.0,92,0.00,,,0.00,Wunderground v.1.15,2013-03-26 11:16:00,
2013-03-26 07:22:00,31.0,28.9,29.97,NW,316,3.0,5.0,92,0.00,,,0.00,Wunderground v.1.15,2013-03-26 11:22:00,
2013-03-26 07:28:00,31.0,28.9,29.98,NW,312,3.0,5.0,92,0.00,,,0.00,Wunderground v.1.15,2013-03-26 11:28:00,
2013-03-26 07:33:00,31.0,28.9,29.98,WNW,296,3.0,4.0,92,0.00,,,0.00,Wunderground v.1.15,2013-03-26 11:33:00,
2013-03-26 07:39:00,30.9,28.9,29.98,NW,320,4.0,8.0,92,0.00,,,0.00,Wunderground v.1.15,2013-03-26 11:39:00,
2013-03-26 07:44:00,30.9,28.9,29.98,NNW,333,4.0,9.0,92,0.00,,,0.00,Wunderground v.1.15,2013-03-26 11:44:00,
2013-03-26 07:49:00,30.9,28.9,29.98,NW,310,4.0,9.0,92,0.00,,,0.00,Wunderground v.1.15,2013-03-26 11:49:00,
2013-03-26 07:55:00,31.0,28.9,29.99,NW,317,3.0,7.0,92,0.00,,,0.00,Wunderground v.1.15,2013-03-26 11:55:00,
2013-03-26 08:00:00,31.0,28.9,29.99,WNW,300,3.0,3.0,92,0.00,,,0.00,Wunderground v.1.15,2013-03-26 12:00:00,
2013-03-26 08:06:00,31.0,28.7,29.99,NW,323,4.0,6.0,91,0.00,,,0.00,Wunderground v.1.15,2013-03-26 12:06:00,
2013-03-26 08:12:00,31.1,28.8,29.99,NW,325,5.0,10.0,91,0.00,,,0.00,Wunderground v.1.15,2013-03-26 12:12:00,
2013-03-26 08:17:00,31.2,28.9,30.00,NW,310,4.0,10.0,91,0.00,,,0.00,Wunderground v.1.15,2013-03-26 12:17:00,
2013-03-26 08:23:00,31.3,29.0,29.99,NW,313,4.0,9.0,91,0.00,,,0.00,Wunderground v.1.15,2013-03-26 12:23:00,
2013-03-26 08:28:00,31.4,29.1,30.00,NW,311,4.0,9.0,91,0.00,,,0.00,Wunderground v.1.15,2013-03-26 12:28:00,
2013-03-26 08:34:00,31.5,29.2,30.00,NW,312,3.0,5.0,91,0.00,,,0.00,Wunderground v.1.15,2013-03-26 12:34:00,
2013-03-26 08:39:00,31.6,29.3,30.00,NNW,331,3.0,7.0,91,0.00,,,0.00,Wunderground v.1.15,2013-03-26 12:39:00,
2013-03-26 08:45:00,31.7,29.4,30.00,NW,321,3.0,10.0,91,0.00,,,0.00,Wunderground v.1.15,2013-03-26 12:45:00,
2013-03-26 08:50:00,31.8,29.2,30.01,NW,306,4.0,4.0,90,0.00,,,0.00,Wunderground v.1.15,2013-03-26 12:50:00,
2013-03-26 08:57:00,31.9,29.3,30.01,NW,316,5.0,6.0,90,0.00,,,0.00,Wunderground v.1.15,2013-03-26 12:57:00,
2013-03-26 09:04:00,32.1,29.5,30.01,NNW,331,4.0,10.0,90,0.00,,,0.00,Wunderground v.1.15,2013-03-26 13:04:00,
2013-03-26 09:09:00,32.3,29.7,30.01,NNW,327,4.0,10.0,90,0.00,,,0.00,Wunderground v.1.15,2013-03-26 13:09:00,
2013-03-26 09:15:00,32.4,29.5,30.02,NW,319,4.0,8.0,89,0.00,,,0.00,Wunderground v.1.15,2013-03-26 13:15:00,
2013-03-26 09:20:00,32.6,29.7,30.02,NW,309,4.0,5.0,89,0.00,,,0.00,Wunderground v.1.15,2013-03-26 13:20:00,
2013-03-26 09:26:00,32.7,29.8,30.02,NNW,328,4.0,6.0,89,0.00,,,0.00,Wunderground v.1.15,2013-03-26 13:26:00,
2013-03-26 09:31:00,32.8,29.9,30.02,NW,313,4.0,4.0,89,0.00,,,0.01,Wunderground v.1.15,2013-03-26 13:31:00,
2013-03-26 09:37:00,32.9,29.7,30.02,NNW,329,5.0,10.0,88,0.00,,,0.01,Wunderground v.1.15,2013-03-26 13:37:00,
2013-03-26 09:42:00,33.0,29.8,30.03,NW,315,6.0,9.0,88,0.00,,,0.01,Wunderground v.1.15,2013-03-26 13:42:00,
2013-03-26 09:47:00,33.1,29.9,30.03,NNW,336,6.0,12.0,88,0.00,,,0.01,Wunderground v.1.15,2013-03-26 13:47:00,
2013-03-26 09:52:00,33.3,30.1,30.03,WNW,298,7.0,7.0,88,0.00,,,0.01,Wunderground v.1.15,2013-03-26 13:52:00,
2013-03-26 09:58:00,33.5,30.3,30.03,NW,326,6.0,10.0,88,0.00,,,0.01,Wunderground v.1.15,2013-03-26 13:58:00,
2013-03-26 10:03:00,33.6,30.1,30.03,NNW,329,6.0,11.0,87,0.00,,,0.01,Wunderground v.1.15,2013-03-26 14:03:00,
2013-03-26 10:09:00,33.7,30.2,30.03,NNW,341,6.0,12.0,87,0.00,,,0.02,Wunderground v.1.15,2013-03-26 14:09:00,
2013-03-26 10:14:00,34.0,30.5,30.03,NW,323,5.0,8.0,87,0.00,,,0.02,Wunderground v.1.15,2013-03-26 14:14:00,
2013-03-26 10:19:00,34.1,30.4,30.03,WNW,290,5.0,8.0,86,0.06,,,0.03,Wunderground v.1.15,2013-03-26 14:19:00,
2013-03-26 10:25:00,34.4,30.6,30.04,NW,316,5.0,6.0,86,0.06,,,0.03,Wunderground v.1.15,2013-03-26 14:25:00,
2013-03-26 10:32:00,34.4,30.4,30.04,WNW,300,5.0,9.0,85,0.07,,,0.04,Wunderground v.1.15,2013-03-26 14:32:00,
2013-03-26 10:38:00,34.5,30.5,30.04,NNW,346,5.0,10.0,85,0.07,,,0.05,Wunderground v.1.15,2013-03-26 14:38:00,
2013-03-26 10:43:00,34.6,30.6,30.05,NW,325,5.0,6.0,85,0.07,,,0.05,Wunderground v.1.15,2013-03-26 14:43:00,
2013-03-26 10:49:00,35.0,30.9,30.04,NW,323,5.0,7.0,85,0.05,,,0.06,Wunderground v.1.15,2013-03-26 14:49:00,
2013-03-26 10:54:00,35.2,30.9,30.04,NW,323,5.0,9.0,84,0.05,,,0.06,Wunderground v.1.15,2013-03-26 14:54:00,
2013-03-26 10:59:00,35.4,31.0,30.05,NW,313,5.0,9.0,84,0.07,,,0.07,Wunderground v.1.15,2013-03-26 14:59:00,
2013-03-26 11:05:00,35.5,31.1,30.05,WNW,287,4.0,5.0,84,0.07,,,0.07,Wunderground v.1.15,2013-03-26 15:05:00,
2013-03-26 11:10:00,35.6,30.9,30.05,WNW,302,4.0,4.0,83,0.05,,,0.08,Wunderground v.1.15,2013-03-26 15:10:00,
2013-03-26 11:15:00,35.4,30.8,30.05,NW,305,5.0,12.0,83,0.05,,,0.08,Wunderground v.1.15,2013-03-26 15:15:00,
2013-03-26 11:21:00,35.3,30.7,30.06,NW,311,6.0,6.0,83,0.05,,,0.09,Wunderground v.1.15,2013-03-26 15:21:00,
2013-03-26 11:27:00,35.4,30.8,30.06,NW,304,6.0,7.0,83,0.05,,,0.09,Wunderground v.1.15,2013-03-26 15:27:00,
2013-03-26 11:33:00,35.8,31.1,30.06,West,271,5.0,7.0,83,0.05,,,0.09,Wunderground v.1.15,2013-03-26 15:33:00,
2013-03-26 11:38:00,36.0,31.0,30.06,WNW,283,5.0,12.0,82,0.04,,,0.10,Wunderground v.1.15,2013-03-26 15:38:00,
2013-03-26 11:43:00,35.9,30.9,30.06,NW,304,6.0,6.0,82,0.04,,,0.10,Wunderground v.1.15,2013-03-26 15:43:00,
2013-03-26 11:49:00,36.2,31.2,30.06,NNW,342,5.0,7.0,82,0.04,,,0.10,Wunderground v.1.15,2013-03-26 15:49:00,
2013-03-26 11:54:00,36.5,31.2,30.06,NNW,339,5.0,9.0,81,0.04,,,0.11,Wunderground v.1.15,2013-03-26 15:54:00,
2013-03-26 11:59:00,36.5,30.9,30.06,NW,321,7.0,10.0,80,0.04,,,0.11,Wunderground v.1.15,2013-03-26 15:59:00,
2013-03-26 12:04:00,36.6,31.0,30.06,NW,307,7.0,11.0,80,0.04,,,0.11,Wunderground v.1.15,2013-03-26 16:04:00,
2013-03-26 12:10:00,37.2,31.9,30.06,WNW,284,5.0,5.0,81,0.00,,,0.12,Wunderground v.1.15,2013-03-26 16:10:00,
2013-03-26 12:16:00,37.7,32.1,30.06,NW,310,5.0,14.0,80,0.00,,,0.12,Wunderground v.1.15,2013-03-26 16:16:00,
2013-03-26 12:21:00,38.1,32.2,30.07,NW,316,6.0,7.0,79,0.00,,,0.12,Wunderground v.1.15,2013-03-26 16:21:00,
2013-03-26 12:26:00,38.0,31.7,30.06,WNW,302,6.0,11.0,78,0.04,,,0.13,Wunderground v.1.15,2013-03-26 16:26:00,
2013-03-26 12:32:00,38.0,32.1,30.06,WNW,290,6.0,11.0,79,0.04,,,0.13,Wunderground v.1.15,2013-03-26 16:32:00,
2013-03-26 12:38:00,38.4,32.5,30.06,WNW,303,5.0,11.0,79,0.04,,,0.13,Wunderground v.1.15,2013-03-26 16:38:00,
2013-03-26 12:43:00,38.6,32.0,30.06,West,281,6.0,11.0,77,0.00,,,0.13,Wunderground v.1.15,2013-03-26 16:43:00,
2013-03-26 12:48:00,38.7,32.1,30.06,NNW,330,7.0,11.0,77,0.00,,,0.13,Wunderground v.1.15,2013-03-26 16:48:00,
2013-03-26 12:54:00,38.9,32.0,30.06,NW,313,8.0,10.0,76,0.00,,,0.14,Wunderground v.1.15,2013-03-26 16:54:00,
2013-03-26 12:59:00,38.2,31.6,30.06,NW,304,7.0,11.0,77,0.00,,,0.14,Wunderground v.1.15,2013-03-26 16:59:00,
2013-03-26 13:05:00,38.1,32.5,30.07,WNW,290,5.0,9.0,80,0.00,,,0.14,Wunderground v.1.15,2013-03-26 17:05:00,
2013-03-26 13:10:00,38.1,32.2,30.07,NW,325,4.0,4.0,79,0.00,,,0.14,Wunderground v.1.15,2013-03-26 17:10:00,
2013-03-26 13:15:00,37.8,31.9,30.07,NW,307,5.0,13.0,79,0.00,,,0.14,Wunderground v.1.15,2013-03-26 17:15:00,
2013-03-26 13:20:00,37.8,31.9,30.07,NW,314,8.0,8.0,79,0.00,,,0.14,Wunderground v.1.15,2013-03-26 17:20:00,
2013-03-26 13:26:00,38.3,32.7,30.07,West,272,6.0,8.0,80,0.00,,,0.14,Wunderground v.1.15,2013-03-26 17:26:00,
2013-03-26 13:32:00,38.6,32.3,30.07,West,275,6.0,14.0,78,0.00,,,0.14,Wunderground v.1.15,2013-03-26 17:32:00,
2013-03-26 13:37:00,38.6,32.3,30.07,West,281,7.0,14.0,78,0.00,,,0.14,Wunderground v.1.15,2013-03-26 17:37:00,
2013-03-26 13:42:00,38.9,32.6,30.07,NW,307,7.0,7.0,78,0.00,,,0.14,Wunderground v.1.15,2013-03-26 17:42:00,
2013-03-26 13:47:00,38.4,31.8,30.07,NW,323,7.0,12.0,77,0.00,,,0.15,Wunderground v.1.15,2013-03-26 17:47:00,
2013-03-26 13:53:00,38.3,32.4,30.07,West,279,7.0,10.0,79,0.00,,,0.15,Wunderground v.1.15,2013-03-26 17:53:00,
2013-03-26 13:58:00,38.7,32.7,30.07,WNW,294,6.0,10.0,79,0.00,,,0.15,Wunderground v.1.15,2013-03-26 17:58:00,
2013-03-26 14:04:00,38.5,32.2,30.07,NW,306,6.0,10.0,78,0.00,,,0.15,Wunderground v.1.15,2013-03-26 18:04:00,
2013-03-26 14:09:00,38.5,31.9,30.07,NNW,331,7.0,12.0,77,0.00,,,0.15,Wunderground v.1.15,2013-03-26 18:09:00,
2013-03-26 14:14:00,38.5,31.9,30.07,North,350,6.0,7.0,77,0.00,,,0.15,Wunderground v.1.15,2013-03-26 18:14:00,
2013-03-26 14:20:00,38.6,31.7,30.07,NW,321,5.0,5.0,76,0.00,,,0.15,Wunderground v.1.15,2013-03-26 18:20:00,
2013-03-26 14:25:00,38.4,31.2,30.07,WNW,302,6.0,9.0,75,0.00,,,0.15,Wunderground v.1.15,2013-03-26 18:25:00,
2013-03-26 14:31:00,38.5,30.9,30.07,NW,323,7.0,7.0,74,0.00,,,0.15,Wunderground v.1.15,2013-03-26 18:31:00,
2013-03-26 14:36:00,38.5,30.9,30.07,NW,311,6.0,12.0,74,0.00,,,0.15,Wunderground v.1.15,2013-03-26 18:36:00,
2013-03-26 14:42:00,38.9,32.0,30.07,NNW,335,5.0,5.0,76,0.00,,,0.15,Wunderground v.1.15,2013-03-26 18:42:00,
2013-03-26 14:48:00,39.5,31.6,30.07,NW,311,5.0,14.0,73,0.00,,,0.15,Wunderground v.1.15,2013-03-26 18:48:00,
2013-03-26 14:53:00,39.3,30.7,30.07,NW,304,7.0,7.0,71,0.00,,,0.15,Wunderground v.1.15,2013-03-26 18:53:00,
2013-03-26 14:59:00,39.1,29.8,30.07,NNW,338,7.0,10.0,69,0.00,,,0.15,Wunderground v.1.15,2013-03-26 18:59:00,
2013-03-26 15:04:00,38.9,29.2,30.07,NW,306,8.0,10.0,68,0.00,,,0.15,Wunderground v.1.15,2013-03-26 19:04:00,
2013-03-26 15:09:00,39.2,30.2,30.07,WNW,296,6.0,10.0,70,0.00,,,0.15,Wunderground v.1.15,2013-03-26 19:09:00,
2013-03-26 15:15:00,39.7,30.0,30.07,NNW,333,5.0,10.0,68,0.00,,,0.15,Wunderground v.1.15,2013-03-26 19:15:00,
2013-03-26 15:21:00,39.6,29.5,30.07,NNW,336,7.0,12.0,67,0.00,,,0.15,Wunderground v.1.15,2013-03-26 19:21:00,
2013-03-26 15:26:00,39.2,27.7,30.07,North,351,7.0,12.0,63,0.00,,,0.15,Wunderground v.1.15,2013-03-26 19:26:00,
2013-03-26 15:31:00,39.0,27.5,30.07,NNW,333,8.0,14.0,63,0.00,,,0.15,Wunderground v.1.15,2013-03-26 19:31:00,
2013-03-26 15:37:00,39.2,27.7,30.07,WNW,300,7.0,14.0,63,0.00,,,0.15,Wunderground v.1.15,2013-03-26 19:37:00,
2013-03-26 15:42:00,39.6,27.2,30.07,NW,321,8.0,14.0,61,0.00,,,0.15,Wunderground v.1.15,2013-03-26 19:42:00,
2013-03-26 15:47:00,40.0,28.0,30.07,WNW,302,8.0,14.0,62,0.00,,,0.15,Wunderground v.1.15,2013-03-26 19:47:00,
2013-03-26 15:53:00,40.4,28.0,30.07,North,355,6.0,10.0,61,0.00,,,0.15,Wunderground v.1.15,2013-03-26 19:53:00,
2013-03-26 15:59:00,40.3,27.9,30.07,NW,321,6.0,10.0,61,0.00,,,0.15,Wunderground v.1.15,2013-03-26 19:59:00,
2013-03-26 16:04:00,40.0,27.2,30.07,NNW,328,7.0,12.0,60,0.00,,,0.15,Wunderground v.1.15,2013-03-26 20:04:00,
2013-03-26 16:09:00,40.0,26.8,30.07,NNW,327,8.0,12.0,59,0.00,,,0.15,Wunderground v.1.15,2013-03-26 20:09:00,
2013-03-26 16:15:00,40.6,26.5,30.07,NNW,328,7.0,10.0,57,0.00,,,0.15,Wunderground v.1.15,2013-03-26 20:15:00,
2013-03-26 16:20:00,40.6,27.0,30.07,NW,315,7.0,12.0,58,0.00,,,0.15,Wunderground v.1.15,2013-03-26 20:20:00,
2013-03-26 16:25:00,40.3,27.5,30.07,NNW,338,8.0,14.0,60,0.00,,,0.15,Wunderground v.1.15,2013-03-26 20:25:00,
2013-03-26 16:31:00,40.0,27.2,30.07,NNW,336,9.0,16.0,60,0.00,,,0.15,Wunderground v.1.15,2013-03-26 20:31:00,
2013-03-26 16:37:00,40.0,27.6,30.07,NNW,344,8.0,16.0,61,0.00,,,0.15,Wunderground v.1.15,2013-03-26 20:37:00,
2013-03-26 16:42:00,39.7,26.9,30.07,NNW,327,8.0,9.0,60,0.00,,,0.15,Wunderground v.1.15,2013-03-26 20:42:00,
2013-03-26 16:48:00,39.5,25.9,30.07,NNW,327,9.0,13.0,58,0.00,,,0.15,Wunderground v.1.15,2013-03-26 20:48:00,
2013-03-26 16:53:00,39.4,26.7,30.08,WNW,300,8.0,13.0,60,0.00,,,0.15,Wunderground v.1.15,2013-03-26 20:53:00,
2013-03-26 16:58:00,39.2,26.9,30.08,NNW,327,8.0,13.0,61,0.00,,,0.15,Wunderground v.1.15,2013-03-26 20:58:00,
2013-03-26 17:04:00,39.0,25.5,30.08,WNW,285,7.0,9.0,58,0.00,,,0.15,Wunderground v.1.15,2013-03-26 21:04:00,
2013-03-26 17:09:00,38.7,25.2,30.08,NW,324,8.0,14.0,58,0.00,,,0.15,Wunderground v.1.15,2013-03-26 21:09:00,
2013-03-26 17:15:00,38.5,24.6,30.08,NW,317,8.0,14.0,57,0.00,,,0.15,Wunderground v.1.15,2013-03-26 21:15:00,
2013-03-26 17:20:00,38.4,24.9,30.08,NW,314,8.0,8.0,58,0.00,,,0.15,Wunderground v.1.15,2013-03-26 21:20:00,
2013-03-26 17:26:00,38.5,25.4,30.08,NNW,328,6.0,8.0,59,0.00,,,0.15,Wunderground v.1.15,2013-03-26 21:26:00,
2013-03-26 17:32:00,38.7,25.2,30.08,NW,309,5.0,6.0,58,0.00,,,0.15,Wunderground v.1.15,2013-03-26 21:32:00,
2013-03-26 17:38:00,39.0,25.9,30.08,NW,316,5.0,6.0,59,0.00,,,0.15,Wunderground v.1.15,2013-03-26 21:38:00,
2013-03-26 17:43:00,39.1,25.6,30.08,NNW,335,5.0,13.0,58,0.00,,,0.15,Wunderground v.1.15,2013-03-26 21:43:00,
2013-03-26 17:48:00,38.9,24.5,30.08,WNW,302,8.0,14.0,56,0.00,,,0.15,Wunderground v.1.15,2013-03-26 21:48:00,
2013-03-26 17:54:00,39.2,25.6,30.09,NW,319,7.0,12.0,58,0.00,,,0.15,Wunderground v.1.15,2013-03-26 21:54:00,
2013-03-26 17:59:00,39.1,26.4,30.09,West,279,7.0,12.0,60,0.00,,,0.15,Wunderground v.1.15,2013-03-26 21:59:00,
2013-03-26 18:04:00,38.8,26.9,30.09,WNW,291,8.0,12.0,62,0.00,,,0.15,Wunderground v.1.15,2013-03-26 22:04:00,
2013-03-26 18:10:00,38.4,26.9,30.09,WNW,292,7.0,11.0,63,0.00,,,0.15,Wunderground v.1.15,2013-03-26 22:10:00,
2013-03-26 18:15:00,38.1,27.0,30.09,West,269,7.0,12.0,64,0.00,,,0.15,Wunderground v.1.15,2013-03-26 22:15:00,
2013-03-26 18:20:00,37.9,26.8,30.09,NW,320,7.0,10.0,64,0.00,,,0.15,Wunderground v.1.15,2013-03-26 22:20:00,
2013-03-26 18:26:00,37.7,26.2,30.09,WNW,297,7.0,10.0,63,0.00,,,0.15,Wunderground v.1.15,2013-03-26 22:26:00,
2013-03-26 18:31:00,37.7,26.2,30.09,WNW,302,6.0,6.0,63,0.00,,,0.15,Wunderground v.1.15,2013-03-26 22:31:00,
2013-03-26 18:37:00,37.7,24.2,30.09,NW,313,5.0,12.0,58,0.00,,,0.15,Wunderground v.1.15,2013-03-26 22:37:00,
2013-03-26 18:43:00,37.6,23.7,30.10,West,263,7.0,15.0,57,0.00,,,0.15,Wunderground v.1.15,2013-03-26 22:43:00,
2013-03-26 18:48:00,37.5,23.6,30.10,WNW,289,6.0,15.0,57,0.00,,,0.15,Wunderground v.1.15,2013-03-26 22:48:00,
2013-03-26 18:54:00,37.5,24.1,30.10,NW,322,6.0,9.0,58,0.00,,,0.15,Wunderground v.1.15,2013-03-26 22:54:00,
2013-03-26 18:59:00,37.5,24.9,30.10,NW,317,7.0,12.0,60,0.00,,,0.15,Wunderground v.1.15,2013-03-26 22:59:00,
2013-03-26 19:05:00,37.5,25.7,30.11,NW,314,9.0,12.0,62,0.00,,,0.15,Wunderground v.1.15,2013-03-26 23:05:00,
2013-03-26 19:11:00,37.3,25.8,30.11,NW,320,8.0,10.0,63,0.00,,,0.15,Wunderground v.1.15,2013-03-26 23:11:00,
2013-03-26 19:17:00,37.1,26.0,30.11,WNW,298,8.0,12.0,64,0.00,,,0.15,Wunderground v.1.15,2013-03-26 23:17:00,
2013-03-26 19:23:00,37.0,26.3,30.12,WNW,290,6.0,11.0,65,0.00,,,0.15,Wunderground v.1.15,2013-03-26 23:23:00,
2013-03-26 19:29:00,36.9,26.6,30.12,NW,319,6.0,11.0,66,0.00,,,0.15,Wunderground v.1.15,2013-03-26 23:29:00,
2013-03-26 19:35:00,36.8,26.5,30.12,WNW,298,7.0,11.0,66,0.00,,,0.15,Wunderground v.1.15,2013-03-26 23:35:00,
2013-03-26 19:40:00,36.8,26.1,30.12,NW,317,6.0,6.0,65,0.00,,,0.15,Wunderground v.1.15,2013-03-26 23:40:00,
2013-03-26 19:46:00,36.6,25.9,30.12,WNW,301,5.0,10.0,65,0.00,,,0.15,Wunderground v.1.15,2013-03-26 23:46:00,
2013-03-26 19:52:00,36.5,25.8,30.12,WNW,294,6.0,13.0,65,0.00,,,0.15,Wunderground v.1.15,2013-03-26 23:52:00,
2013-03-26 19:57:00,36.3,25.7,30.12,WNW,296,8.0,15.0,65,0.00,,,0.15,Wunderground v.1.15,2013-03-26 23:57:00,
2013-03-26 20:03:00,36.2,25.9,30.13,WNW,289,9.0,12.0,66,0.00,,,0.15,Wunderground v.1.15,2013-03-27 00:03:00,
2013-03-26 20:08:00,36.1,26.2,30.13,NW,314,8.0,12.0,67,0.00,,,0.15,Wunderground v.1.15,2013-03-27 00:08:00,
2013-03-26 20:14:00,36.0,26.5,30.13,West,277,8.0,16.0,68,0.00,,,0.15,Wunderground v.1.15,2013-03-27 00:14:00,
2013-03-26 20:19:00,35.9,26.7,30.13,NNW,329,9.0,16.0,69,0.00,,,0.15,Wunderground v.1.15,2013-03-27 00:19:00,
2013-03-26 20:24:00,35.8,27.0,30.13,NW,315,9.0,10.0,70,0.00,,,0.15,Wunderground v.1.15,2013-03-27 00:24:00,
2013-03-26 20:30:00,35.8,27.3,30.13,WNW,284,8.0,9.0,71,0.00,,,0.15,Wunderground v.1.15,2013-03-27 00:30:00,
2013-03-26 20:35:00,35.7,27.2,30.13,NW,308,7.0,13.0,71,0.00,,,0.15,Wunderground v.1.15,2013-03-27 00:35:00,
2013-03-26 20:41:00,35.6,27.5,30.14,NW,307,6.0,6.0,72,0.00,,,0.15,Wunderground v.1.15,2013-03-27 00:41:00,
2013-03-26 20:46:00,35.6,27.5,30.14,West,269,6.0,10.0,72,0.00,,,0.15,Wunderground v.1.15,2013-03-27 00:46:00,
2013-03-26 20:51:00,35.6,27.5,30.14,West,271,6.0,9.0,72,0.00,,,0.15,Wunderground v.1.15,2013-03-27 00:51:00,
2013-03-26 20:56:00,35.5,27.7,30.14,West,271,7.0,11.0,73,0.00,,,0.15,Wunderground v.1.15,2013-03-27 00:56:00,
2013-03-26 21:02:00,35.5,27.7,30.14,West,281,9.0,12.0,73,0.00,,,0.15,Wunderground v.1.15,2013-03-27 01:02:00,
2013-03-26 21:07:00,35.4,27.9,30.14,WNW,296,9.0,17.0,74,0.00,,,0.15,Wunderground v.1.15,2013-03-27 01:07:00,
2013-03-26 21:13:00,35.3,27.8,30.14,West,281,9.0,11.0,74,0.00,,,0.15,Wunderground v.1.15,2013-03-27 01:13:00,
2013-03-26 21:18:00,35.2,28.1,30.15,WNW,303,7.0,11.0,75,0.00,,,0.15,Wunderground v.1.15,2013-03-27 01:18:00,
2013-03-26 21:23:00,35.1,28.0,30.15,NW,313,8.0,13.0,75,0.00,,,0.15,Wunderground v.1.15,2013-03-27 01:23:00,
2013-03-26 21:29:00,35.1,28.0,30.15,WNW,297,8.0,13.0,75,0.00,,,0.15,Wunderground v.1.15,2013-03-27 01:29:00,
2013-03-26 21:34:00,35.0,28.2,30.15,WNW,282,8.0,9.0,76,0.00,,,0.15,Wunderground v.1.15,2013-03-27 01:34:00,
2013-03-26 21:39:00,34.9,28.1,30.15,West,277,6.0,14.0,76,0.00,,,0.15,Wunderground v.1.15,2013-03-27 01:39:00,
2013-03-26 21:45:00,34.9,28.4,30.15,NNW,327,7.0,13.0,77,0.00,,,0.15,Wunderground v.1.15,2013-03-27 01:45:00,
2013-03-26 21:50:00,34.8,28.3,30.15,WNW,298,6.0,6.0,77,0.00,,,0.15,Wunderground v.1.15,2013-03-27 01:50:00,
2013-03-26 21:55:00,34.8,28.3,30.16,NNW,330,5.0,10.0,77,0.00,,,0.15,Wunderground v.1.15,2013-03-27 01:55:00,
2013-03-26 22:01:00,34.7,28.2,30.16,WNW,299,6.0,11.0,77,0.00,,,0.15,Wunderground v.1.15,2013-03-27 02:01:00,
2013-03-26 22:07:00,34.5,28.3,30.16,NW,326,7.0,13.0,78,0.00,,,0.15,Wunderground v.1.15,2013-03-27 02:07:00,
2013-03-26 22:12:00,34.4,28.2,30.16,WSW,253,8.0,15.0,78,0.00,,,0.15,Wunderground v.1.15,2013-03-27 02:12:00,
2013-03-26 22:17:00,34.4,28.6,30.16,West,266,9.0,15.0,79,0.00,,,0.15,Wunderground v.1.15,2013-03-27 02:17:00,
2013-03-26 22:23:00,34.4,28.6,30.16,WNW,294,6.0,9.0,79,0.00,,,0.15,Wunderground v.1.15,2013-03-27 02:23:00,
2013-03-26 22:28:00,34.3,28.5,30.16,WNW,293,4.0,12.0,79,0.00,,,0.15,Wunderground v.1.15,2013-03-27 02:28:00,
2013-03-26 22:34:00,34.2,28.7,30.16,West,269,6.0,12.0,80,0.00,,,0.15,Wunderground v.1.15,2013-03-27 02:34:00,
2013-03-26 22:40:00,34.1,28.6,30.16,NW,311,7.0,7.0,80,0.00,,,0.15,Wunderground v.1.15,2013-03-27 02:40:00,
2013-03-26 22:47:00,34.0,28.5,30.16,WNW,302,6.0,10.0,80,0.00,,,0.15,Wunderground v.1.15,2013-03-27 02:47:00,
2013-03-26 22:53:00,34.0,28.2,30.16,West,261,7.0,11.0,79,0.00,,,0.15,Wunderground v.1.15,2013-03-27 02:53:00,
2013-03-26 22:58:00,33.9,28.1,30.16,WNW,285,6.0,11.0,79,0.00,,,0.15,Wunderground v.1.15,2013-03-27 02:58:00,
2013-03-26 23:03:00,33.9,28.1,30.16,SW,233,6.0,9.0,79,0.00,,,0.15,Wunderground v.1.15,2013-03-27 03:03:00,
2013-03-26 23:09:00,33.9,28.1,30.16,WNW,288,7.0,12.0,79,0.00,,,0.15,Wunderground v.1.15,2013-03-27 03:09:00,
2013-03-26 23:14:00,33.9,28.1,30.16,WNW,299,8.0,15.0,79,0.00,,,0.15,Wunderground v.1.15,2013-03-27 03:14:00,
2013-03-26 23:20:00,33.9,28.1,30.16,WNW,294,7.0,7.0,79,0.00,,,0.15,Wunderground v.1.15,2013-03-27 03:20:00,
2013-03-26 23:25:00,33.9,28.1,30.16,NW,307,7.0,12.0,79,0.00,,,0.15,Wunderground v.1.15,2013-03-27 03:25:00,
2013-03-26 23:31:00,33.8,28.0,30.16,WSW,241,7.0,7.0,79,0.00,,,0.15,Wunderground v.1.15,2013-03-27 03:31:00,
2013-03-26 23:37:00,33.8,27.7,30.16,WNW,286,6.0,14.0,78,0.00,,,0.15,Wunderground v.1.15,2013-03-27 03:37:00,
2013-03-26 23:42:00,33.8,27.7,30.16,West,277,6.0,9.0,78,0.00,,,0.15,Wunderground v.1.15,2013-03-27 03:42:00,
2013-03-26 23:48:00,33.8,27.7,30.16,WNW,292,7.0,9.0,78,0.00,,,0.15,Wunderground v.1.15,2013-03-27 03:48:00,
2013-03-26 23:53:00,33.8,27.7,30.16,NW,306,6.0,9.0,78,0.00,,,0.15,Wunderground v.1.15,2013-03-27 03:53:00,
2013-03-26 23:58:00,33.8,27.7,30.16,NW,304,6.0,11.0,78,0.00,,,0.15,Wunderground v.1.15,2013-03-27 03:58:00,